Tracking 29932 objects as of 3-Dec-2024
HD Live streaming from Space Station
objects crossing your sky now

STARLINK-11173

Track STARLINK-11173 now!
10-day predictions
STARLINK-11173 is classified as:


NORAD ID: 60192
Int'l Code: 2024-124K
Perigee: 366.4 km
Apogee: 367.3 km
Inclination: 53.2 °
Period: 91.7 minutes
Semi major axis: 6737 km
RCS: Unknown
Launch date: July 3, 2024
Source: United States (US)
Launch site: AIR FORCE EASTERN TEST RANGE (AFETR)
Your satellite tracking list
Your tracking list is empty




NASA's NSSDC Master Catalog

Two Line Element Set (TLE):
1 60192U 24124K   24337.26908047  .00005995  00000-0  54289-4 0  9996
2 60192  53.1553 280.9674 0000710  58.4026 301.7061 15.69714200 23908
Source of the keplerian elements: AFSPC